FDX7765 KTPA-KMEM

Flight info

Callsign FDX7765
Flight time 1h 37m
Altitude FL070
Route SZW WYATT VUZ MEM
Aircraft B722/M-S/N

Departure

Time 2026-05-04 04:47
Airport Tampa International Airport (KTPA)

Arrival

Time 2026-05-04 06:25
Airport Memphis International Airport (KMEM)
Time Latitude Longitude Altitude Speed Heading
2026-05-04 04:42 27.96718 -82.52343 35 ft 0 kts 181°
2026-05-04 04:44 27.96720 -82.52343 35 ft 1 kts 181°
2026-05-04 04:44 27.96734 -82.52343 35 ft 3 kts 181°
2026-05-04 04:44 27.96753 -82.52343 35 ft 3 kts 181°
2026-05-04 04:45 27.96773 -82.52342 35 ft 3 kts 181°
2026-05-04 04:45 27.96794 -82.52342 35 ft 3 kts 181°
2026-05-04 04:45 27.96788 -82.52347 35 ft 6 kts 219°
2026-05-04 04:47 27.96518 -82.52897 35 ft 15 kts
2026-05-04 04:47 27.96956 -82.52882 35 ft 131 kts
2026-05-04 04:47 27.98292 -82.52837 87 ft 244 kts
2026-05-04 04:47 27.99723 -82.52832 1306 ft 190 kts 359°
2026-05-04 04:48 28.01070 -82.53368 1272 ft 216 kts 330°
2026-05-04 04:49 28.05123 -82.57680 3977 ft 237 kts 323°
2026-05-04 04:49 28.06494 -82.58813 4623 ft 253 kts 326°
2026-05-04 04:49 28.07955 -82.59938 5248 ft 253 kts 327°
2026-05-04 04:49 28.09393 -82.61006 5849 ft 244 kts 328°
2026-05-04 04:50 28.10863 -82.62073 5987 ft 258 kts 328°
2026-05-04 04:50 28.12379 -82.63155 6117 ft 256 kts 328°
2026-05-04 04:50 28.13830 -82.64183 6672 ft 237 kts 328°
2026-05-04 04:50 28.15279 -82.65204 7441 ft 273 kts 328°
2026-05-04 04:51 28.16944 -82.66372 8197 ft 281 kts 328°
2026-05-04 04:51 28.18625 -82.67547 8951 ft 286 kts 326°
2026-05-04 04:51 28.20275 -82.68695 9674 ft 272 kts 326°
2026-05-04 04:51 28.21901 -82.69828 10436 ft 284 kts 324°
2026-05-04 04:52 28.23636 -82.71047 11214 ft 304 kts 323°
2026-05-04 04:52 28.25490 -82.72354 11987 ft 325 kts 323°
2026-05-04 04:52 28.27463 -82.73748 12757 ft 346 kts 323°
2026-05-04 04:52 28.29549 -82.75221 13522 ft 359 kts 323°
2026-05-04 04:53 28.31643 -82.76687 14269 ft 351 kts 322°
2026-05-04 04:53 28.33690 -82.78107 15014 ft 341 kts 322°
2026-05-04 04:53 28.35679 -82.79485 15758 ft 331 kts 322°
2026-05-04 04:53 28.37609 -82.80822 16497 ft 322 kts 322°
2026-05-04 04:54 28.39532 -82.82163 17247 ft 331 kts 322°
2026-05-04 04:54 28.41529 -82.83568 18005 ft 348 kts 321°
2026-05-04 04:54 28.43609 -82.85089 18765 ft 365 kts 319°
2026-05-04 04:54 28.45638 -82.86842 19638 ft 366 kts 314°
2026-05-04 04:55 28.47591 -82.88711 21068 ft 364 kts 313°
2026-05-04 04:55 28.49392 -82.90499 23669 ft 332 kts 311°
2026-05-04 04:55 28.51147 -82.92282 24804 ft 353 kts 311°
2026-05-04 04:55 28.52977 -82.94176 25845 ft 360 kts 311°
2026-05-04 04:56 28.54846 -82.96104 26893 ft 368 kts 311°
2026-05-04 04:56 28.56758 -82.98065 27916 ft 374 kts 311°
2026-05-04 04:56 28.58689 -83.00027 29094 ft 373 kts 311°
2026-05-04 04:56 28.60614 -83.01963 30331 ft 369 kts 311°
2026-05-04 04:57 28.62526 -83.03875 31451 ft 366 kts 311°
2026-05-04 04:57 28.64435 -83.05777 32424 ft 367 kts 311°
2026-05-04 04:57 28.66374 -83.07714 32945 ft 377 kts 311°
2026-05-04 04:57 28.68358 -83.09695 33576 ft 383 kts 311°
2026-05-04 04:58 28.70371 -83.11702 34024 ft 394 kts 310°
2026-05-04 04:58 28.72468 -83.13803 34095 ft 411 kts 311°
2026-05-04 04:58 28.74652 -83.15992 34150 ft 428 kts 311°
2026-05-04 04:58 28.76914 -83.18252 34126 ft 431 kts 311°
2026-05-04 04:59 28.81371 -83.22653 34152 ft 430 kts 312°
2026-05-04 04:59 28.85870 -83.27086 34159 ft 428 kts 312°
2026-05-04 05:00 28.90339 -83.31492 34161 ft 425 kts 313°
2026-05-04 05:01 28.96985 -83.38051 34158 ft 421 kts 313°
2026-05-04 05:01 29.01378 -83.42396 34160 ft 418 kts 313°
2026-05-04 05:02 29.05744 -83.46723 34165 ft 416 kts 313°
2026-05-04 05:02 29.10090 -83.51041 34166 ft 415 kts 313°
2026-05-04 05:03 29.14420 -83.55348 34166 ft 414 kts 313°
2026-05-04 05:04 29.23044 -83.63946 34166 ft 412 kts 313°
2026-05-04 05:04 29.27342 -83.68242 34165 ft 412 kts 314°
2026-05-04 05:06 29.44537 -83.85475 34165 ft 412 kts 314°
2026-05-04 05:07 29.48829 -83.89786 34166 ft 411 kts 314°
2026-05-04 05:07 29.53115 -83.94096 34164 ft 411 kts 314°
2026-05-04 05:09 29.72348 -84.13502 34165 ft 410 kts 314°
2026-05-04 05:10 29.76613 -84.17821 34160 ft 410 kts 315°
2026-05-04 05:10 29.80873 -84.22143 34160 ft 410 kts 315°
2026-05-04 05:11 29.85131 -84.26464 34161 ft 409 kts 315°
2026-05-04 05:11 29.89385 -84.30784 34160 ft 409 kts 315°
2026-05-04 05:12 29.93631 -84.35102 34159 ft 408 kts 315°
2026-05-04 05:12 29.97872 -84.39420 34159 ft 408 kts 315°
2026-05-04 05:13 30.02106 -84.43736 34159 ft 408 kts 315°
2026-05-04 05:13 30.06336 -84.48053 34159 ft 407 kts 315°
2026-05-04 05:14 30.10559 -84.52369 34159 ft 407 kts 315°
2026-05-04 05:14 30.14779 -84.56688 34159 ft 407 kts 315°
2026-05-04 05:15 30.18996 -84.61009 34159 ft 407 kts 315°
2026-05-04 05:15 30.23209 -84.65330 34159 ft 406 kts 315°
2026-05-04 05:16 30.27419 -84.69654 34159 ft 406 kts 315°
2026-05-04 05:16 30.31629 -84.73986 34159 ft 407 kts 315°
2026-05-04 05:17 30.35841 -84.78322 34159 ft 407 kts 315°
2026-05-04 05:17 30.40055 -84.82664 34159 ft 407 kts 315°
2026-05-04 05:18 30.44270 -84.87014 34159 ft 407 kts 315°
2026-05-04 05:18 30.48487 -84.91369 34159 ft 408 kts 315°
2026-05-04 05:19 30.52704 -84.95731 34160 ft 408 kts 315°
2026-05-04 05:19 30.56921 -85.00097 34160 ft 408 kts 315°
2026-05-04 05:20 30.61137 -85.04469 34160 ft 408 kts 315°
2026-05-04 05:20 30.65353 -85.08846 34160 ft 408 kts 315°
2026-05-04 05:21 30.69570 -85.13229 34160 ft 408 kts 315°
2026-05-04 05:21 30.73787 -85.17617 34160 ft 408 kts 315°
2026-05-04 05:22 30.78001 -85.22009 34159 ft 409 kts 315°
2026-05-04 05:22 30.82216 -85.26409 34160 ft 409 kts 316°
2026-05-04 05:23 30.86430 -85.30812 34160 ft 409 kts 316°
2026-05-04 05:23 30.90642 -85.35215 34162 ft 408 kts 316°
2026-05-04 05:24 30.94849 -85.39619 34166 ft 408 kts 316°
2026-05-04 05:24 30.99051 -85.44024 34169 ft 408 kts 316°
2026-05-04 05:25 31.03251 -85.48433 34167 ft 408 kts 316°
2026-05-04 05:25 31.07449 -85.52844 34168 ft 408 kts 316°
2026-05-04 05:26 31.11645 -85.57259 34163 ft 408 kts 316°
2026-05-04 05:26 31.15841 -85.61680 34157 ft 408 kts 316°
2026-05-04 05:28 31.32605 -85.79401 34163 ft 408 kts 316°
2026-05-04 05:29 31.36794 -85.83842 34166 ft 408 kts 316°
2026-05-04 05:29 31.40980 -85.88286 34165 ft 408 kts 316°
2026-05-04 05:31 31.57710 -86.06099 34183 ft 408 kts 316°
2026-05-04 05:32 31.61889 -86.10563 34184 ft 408 kts 316°
2026-05-04 05:33 31.68152 -86.17265 34186 ft 408 kts 316°
2026-05-04 05:33 31.72328 -86.21740 34186 ft 408 kts 316°
2026-05-04 05:34 31.76502 -86.26220 34185 ft 408 kts 316°
2026-05-04 05:34 31.80677 -86.30706 34181 ft 408 kts 315°
2026-05-04 05:35 31.84856 -86.35201 34172 ft 409 kts 315°
2026-05-04 05:35 31.89035 -86.39702 34171 ft 409 kts 315°
2026-05-04 05:36 31.93213 -86.44208 34174 ft 409 kts 315°
2026-05-04 05:36 31.97389 -86.48718 34175 ft 409 kts 315°
2026-05-04 05:37 32.01568 -86.53238 34165 ft 409 kts 315°
2026-05-04 05:37 32.05746 -86.57762 34162 ft 409 kts 315°
2026-05-04 05:38 32.12009 -86.64554 34160 ft 409 kts 315°
2026-05-04 05:38 32.16183 -86.69087 34160 ft 409 kts 315°
2026-05-04 05:39 32.22440 -86.75895 34161 ft 409 kts 315°
2026-05-04 05:40 32.28686 -86.82705 34161 ft 408 kts 315°
2026-05-04 05:40 32.32842 -86.87244 34161 ft 408 kts 315°
2026-05-04 05:41 32.36989 -86.91778 34161 ft 407 kts 315°
2026-05-04 05:41 32.41133 -86.96315 34160 ft 407 kts 315°
2026-05-04 05:42 32.45270 -87.00849 34160 ft 407 kts 315°
2026-05-04 05:42 32.49402 -87.05387 34160 ft 406 kts 315°
2026-05-04 05:43 32.53533 -87.09926 34159 ft 406 kts 315°
2026-05-04 05:45 32.70038 -87.28129 34103 ft 407 kts 315°
2026-05-04 05:47 32.86554 -87.46435 34096 ft 407 kts 315°
2026-05-04 05:47 32.90666 -87.51010 34109 ft 406 kts 315°
2026-05-04 05:48 32.94777 -87.55588 34117 ft 406 kts 315°
2026-05-04 05:48 32.98884 -87.60169 34113 ft 406 kts 315°
2026-05-04 05:49 33.02994 -87.64760 34108 ft 406 kts 315°
2026-05-04 05:49 33.07102 -87.69355 34090 ft 407 kts 315°
2026-05-04 05:51 33.23536 -87.87795 34079 ft 406 kts 314°
2026-05-04 05:52 33.27631 -87.92404 34126 ft 405 kts 314°
2026-05-04 05:52 33.31715 -87.97007 34139 ft 405 kts 314°
2026-05-04 05:54 33.48049 -88.15488 34139 ft 406 kts 314°
2026-05-04 05:55 33.52131 -88.20123 34139 ft 406 kts 314°
2026-05-04 05:55 33.56214 -88.24764 34137 ft 406 kts 314°
2026-05-04 05:56 33.60296 -88.29410 34130 ft 406 kts 314°
2026-05-04 05:56 33.64377 -88.34062 34121 ft 406 kts 314°
2026-05-04 05:57 33.68455 -88.38717 34116 ft 406 kts 314°
2026-05-04 05:57 33.72529 -88.43373 34116 ft 406 kts 314°
2026-05-04 05:58 33.76599 -88.48030 34127 ft 405 kts 314°
2026-05-04 05:58 33.80662 -88.52687 34130 ft 405 kts 314°
2026-05-04 05:59 33.84725 -88.57349 34132 ft 405 kts 314°
2026-05-04 05:59 33.88784 -88.62015 34136 ft 405 kts 314°
2026-05-04 06:00 33.92841 -88.66684 34139 ft 405 kts 314°
2026-05-04 06:00 33.96897 -88.71359 34134 ft 405 kts 314°
2026-05-04 06:01 34.00952 -88.76039 34135 ft 405 kts 314°
2026-05-04 06:03 34.17170 -88.94820 34113 ft 404 kts 313°
2026-05-04 06:05 34.29650 -89.09320 29763 ft 330 kts 313°
2026-05-04 06:05 34.32898 -89.13120 28264 ft 322 kts 313°
2026-05-04 06:05 34.34562 -89.15074 27525 ft 359 kts 313°
2026-05-04 06:06 34.36449 -89.17306 26793 ft 388 kts 313°
2026-05-04 06:06 34.38338 -89.19526 26045 ft 372 kts 314°
2026-05-04 06:06 34.40159 -89.21655 25293 ft 358 kts 314°
2026-05-04 06:06 34.41919 -89.23709 24542 ft 348 kts 314°
2026-05-04 06:07 34.43632 -89.25710 23791 ft 339 kts 314°
2026-05-04 06:07 34.45294 -89.27677 23040 ft 331 kts 313°
2026-05-04 06:07 34.46778 -89.29762 22291 ft 325 kts 305°
2026-05-04 06:07 34.48093 -89.31992 21549 ft 342 kts 303°
2026-05-04 06:08 34.49397 -89.34453 20807 ft 345 kts 299°
2026-05-04 06:08 34.50469 -89.36994 20131 ft 333 kts 295°
2026-05-04 06:08 34.51355 -89.39446 20101 ft 305 kts 293°
2026-05-04 06:08 34.52123 -89.41728 20095 ft 292 kts 292°
2026-05-04 06:09 34.52904 -89.44119 20071 ft 320 kts 292°
2026-05-04 06:09 34.53754 -89.46747 19369 ft 345 kts 291°
2026-05-04 06:11 34.58876 -89.64702 13417 ft 321 kts 287°
2026-05-04 06:11 34.59481 -89.67306 12422 ft 322 kts 287°
2026-05-04 06:13 34.63273 -89.83195 8102 ft 245 kts 287°
2026-05-04 06:14 34.66248 -89.94155 4682 ft 214 kts 287°
2026-05-04 06:14 34.66927 -89.95715 4276 ft 212 kts 304°
2026-05-04 06:15 34.68163 -89.96640 4021 ft 208 kts 335°
2026-05-04 06:15 34.69537 -89.96925 3860 ft 199 kts 348°
2026-05-04 06:15 34.70881 -89.97003 3394 ft 204 kts 352°
2026-05-04 06:15 34.72357 -89.97018 2881 ft 207 kts 354°
2026-05-04 06:16 34.73789 -89.97019 2462 ft 205 kts 354°
2026-05-04 06:16 34.75175 -89.97018 2194 ft 192 kts 353°
2026-05-04 06:16 34.76491 -89.97024 2041 ft 194 kts 351°
2026-05-04 06:16 34.77845 -89.97044 1997 ft 195 kts 351°
2026-05-04 06:17 34.79180 -89.97065 1920 ft 191 kts 351°
2026-05-04 06:17 34.80483 -89.97087 1812 ft 183 kts 352°
2026-05-04 06:17 34.81737 -89.97112 1742 ft 182 kts 353°
2026-05-04 06:17 34.83009 -89.97148 1594 ft 183 kts 355°
2026-05-04 06:18 34.84264 -89.97169 1485 ft 178 kts 353°
2026-05-04 06:18 34.85513 -89.97197 1471 ft 185 kts 353°
2026-05-04 06:18 34.86804 -89.97230 1472 ft 206 kts 353°
2026-05-04 06:20 34.95513 -89.97410 1248 ft 166 kts 354°
2026-05-04 06:20 34.96666 -89.97432 1005 ft 168 kts 354°
2026-05-04 06:21 35.01170 -89.97491 556 ft 158 kts 354°
2026-05-04 06:21 35.02253 -89.97537 417 ft 153 kts 356°
2026-05-04 06:22 35.03288 -89.97566 362 ft 145 kts 358°
2026-05-04 06:22 35.04251 -89.97592 350 ft 129 kts 358°
2026-05-04 06:25 35.06344 -89.97876 350 ft 0 kts 254°
2026-05-04 06:25 35.06327 -89.97894 350 ft 6 kts 211°
2026-05-04 06:26 35.06281 -89.97896 350 ft 3 kts 180°
2026-05-04 06:26 35.06275 -89.97896 350 ft 0 kts 180°